Year,Month,Day,Hour,Minute,Value (Times are PST for temperature in C)
2017,03,28,09,40,6.80
2017,03,28,09,41,6.80
2017,03,28,09,42,6.80
2017,03,28,09,43,6.80
2017,03,28,09,44,6.90
2017,03,28,09,45,6.90
2017,03,28,09,46,6.90
2017,03,28,09,47,7.00
2017,03,28,09,48,7.00
2017,03,28,09,49,7.00
2017,03,28,09,50,7.10
2017,03,28,09,51,7.10
2017,03,28,09,52,7.10
2017,03,28,09,53,7.10
2017,03,28,09,54,7.10
2017,03,28,09,55,7.10
2017,03,28,09,56,7.10
2017,03,28,09,57,7.10
2017,03,28,09,58,7.10
2017,03,28,09,59,7.10
2017,03,28,10,00,7.10
2017,03,28,10,01,7.10
2017,03,28,10,02,7.10
2017,03,28,10,03,7.10
2017,03,28,10,04,7.20
2017,03,28,10,05,7.20
2017,03,28,10,06,7.20
2017,03,28,10,07,7.20
2017,03,28,10,08,7.20
2017,03,28,10,09,7.20
2017,03,28,10,10,7.20
2017,03,28,10,11,7.20
2017,03,28,10,12,7.20
2017,03,28,10,13,7.30
2017,03,28,10,14,7.30
2017,03,28,10,15,7.30
2017,03,28,10,16,7.30
2017,03,28,10,17,7.30
2017,03,28,10,18,7.30
2017,03,28,10,19,7.30
2017,03,28,10,20,7.40
2017,03,28,10,21,7.40
2017,03,28,10,22,7.40
2017,03,28,10,23,7.50
2017,03,28,10,24,7.50
2017,03,28,10,25,7.50
2017,03,28,10,26,7.50
2017,03,28,10,27,7.50
2017,03,28,10,28,7.50
2017,03,28,10,29,7.50
2017,03,28,10,30,7.50
2017,03,28,10,31,7.60
2017,03,28,10,32,7.60
2017,03,28,10,33,7.60
2017,03,28,10,34,7.60
2017,03,28,10,35,7.60
2017,03,28,10,36,7.60
2017,03,28,10,37,7.70
2017,03,28,10,38,7.70
2017,03,28,10,39,7.70
2017,03,28,10,40,7.70
2017,03,28,10,41,7.70
2017,03,28,10,42,7.80
2017,03,28,10,43,7.80
2017,03,28,10,44,7.80
2017,03,28,10,45,7.80
2017,03,28,10,46,7.80
2017,03,28,10,47,7.80
2017,03,28,10,48,7.80
2017,03,28,10,49,7.90
2017,03,28,10,50,7.90
2017,03,28,10,51,7.90
2017,03,28,10,52,7.90
2017,03,28,10,53,7.90
2017,03,28,10,54,8.00
2017,03,28,10,55,8.00
2017,03,28,10,56,8.00
2017,03,28,10,57,8.10
2017,03,28,10,58,8.00
2017,03,28,10,59,8.00
2017,03,28,11,00,8.00
2017,03,28,11,01,7.90
2017,03,28,11,02,7.90
2017,03,28,11,03,8.00
2017,03,28,11,04,8.00
2017,03,28,11,05,8.00
2017,03,28,11,06,8.00
2017,03,28,11,07,8.00
2017,03,28,11,08,8.00
2017,03,28,11,09,7.90
2017,03,28,11,10,7.90
2017,03,28,11,11,7.90
2017,03,28,11,12,7.90
2017,03,28,11,13,7.90
2017,03,28,11,14,7.90
2017,03,28,11,15,7.90
2017,03,28,11,16,7.90
2017,03,28,11,17,8.00
2017,03,28,11,18,8.00
2017,03,28,11,19,8.00
2017,03,28,11,20,8.10
2017,03,28,11,21,8.10
2017,03,28,11,22,8.10
2017,03,28,11,23,8.10
2017,03,28,11,24,8.10
2017,03,28,11,25,8.10
2017,03,28,11,26,8.10
2017,03,28,11,27,8.00
2017,03,28,11,28,8.00
2017,03,28,11,29,7.90
2017,03,28,11,30,7.90
2017,03,28,11,31,7.90
2017,03,28,11,32,8.00
2017,03,28,11,33,8.00
2017,03,28,11,34,8.00
2017,03,28,11,35,8.00
2017,03,28,11,36,8.10
2017,03,28,11,37,8.10
2017,03,28,11,38,8.10
2017,03,28,11,39,8.10
2017,03,28,11,40,8.10
2017,03,28,11,41,8.10
2017,03,28,11,42,8.10
2017,03,28,11,43,8.20
2017,03,28,11,44,8.20
2017,03,28,11,45,8.20
2017,03,28,11,46,8.20
2017,03,28,11,47,8.20
2017,03,28,11,48,8.20
2017,03,28,11,49,8.20
2017,03,28,11,50,8.20
2017,03,28,11,51,8.20
2017,03,28,11,52,8.20
2017,03,28,11,53,8.20
2017,03,28,11,54,8.20
2017,03,28,11,55,8.20
2017,03,28,11,56,8.20
2017,03,28,11,57,8.30
2017,03,28,11,58,8.30
2017,03,28,11,59,8.30
2017,03,28,12,00,8.20
2017,03,28,12,01,8.20
2017,03,28,12,02,8.20
2017,03,28,12,03,8.20
2017,03,28,12,04,8.20
2017,03,28,12,05,8.10
2017,03,28,12,06,8.10
2017,03,28,12,07,8.10
2017,03,28,12,08,8.10
2017,03,28,12,09,8.10
2017,03,28,12,10,8.10
2017,03,28,12,11,8.10
2017,03,28,12,12,8.20
2017,03,28,12,13,8.20
2017,03,28,12,14,8.20
2017,03,28,12,15,8.20
2017,03,28,12,16,8.20
2017,03,28,12,17,8.20
2017,03,28,12,18,8.20
2017,03,28,12,19,8.30
2017,03,28,12,20,8.30
2017,03,28,12,21,8.30
2017,03,28,12,22,8.30
2017,03,28,12,23,8.30
2017,03,28,12,24,8.30
2017,03,28,12,25,8.30
2017,03,28,12,26,8.30
2017,03,28,12,27,8.30
2017,03,28,12,28,8.30
2017,03,28,12,29,8.30
2017,03,28,12,30,8.30
2017,03,28,12,31,8.30
2017,03,28,12,32,8.30
2017,03,28,12,33,8.30
2017,03,28,12,34,8.20
2017,03,28,12,35,8.20
2017,03,28,12,36,8.20
2017,03,28,12,37,8.20
2017,03,28,12,38,8.30
2017,03,28,12,39,8.30
2017,03,28,12,40,8.30
2017,03,28,12,41,8.30
2017,03,28,12,42,8.30
2017,03,28,12,43,8.40
2017,03,28,12,44,8.40
2017,03,28,12,45,8.40
2017,03,28,12,46,8.50
2017,03,28,12,47,8.60
2017,03,28,12,48,8.60
2017,03,28,12,49,8.60
2017,03,28,12,50,8.60
2017,03,28,12,51,8.60
2017,03,28,12,52,8.50
2017,03,28,12,53,8.50
2017,03,28,12,54,8.60
2017,03,28,12,55,8.60
2017,03,28,12,56,8.60
2017,03,28,12,57,8.70
2017,03,28,12,58,8.70
2017,03,28,12,59,8.70
2017,03,28,13,00,8.60
2017,03,28,13,01,8.60
2017,03,28,13,02,8.60
2017,03,28,13,03,8.60
2017,03,28,13,04,8.60
2017,03,28,13,05,8.50
2017,03,28,13,06,8.40
2017,03,28,13,07,8.30
2017,03,28,13,08,8.30
2017,03,28,13,09,8.30
2017,03,28,13,10,8.30
2017,03,28,13,11,8.30
2017,03,28,13,12,8.30
2017,03,28,13,13,8.30
2017,03,28,13,14,8.30
2017,03,28,13,15,8.30
2017,03,28,13,16,8.30
2017,03,28,13,17,8.30
2017,03,28,13,18,8.30
2017,03,28,13,19,8.30
2017,03,28,13,20,8.40
2017,03,28,13,21,8.40
2017,03,28,13,22,8.40
2017,03,28,13,23,8.40
2017,03,28,13,24,8.40
2017,03,28,13,25,8.40
2017,03,28,13,26,8.40
2017,03,28,13,27,8.50
2017,03,28,13,28,8.50
2017,03,28,13,29,8.60
2017,03,28,13,30,8.60
2017,03,28,13,31,8.70
2017,03,28,13,32,8.70
2017,03,28,13,33,8.80
2017,03,28,13,34,8.80
2017,03,28,13,35,8.80
2017,03,28,13,36,8.90
2017,03,28,13,37,9.00
2017,03,28,13,38,9.00
2017,03,28,13,39,9.10
2017,03,28,13,40,9.10
2017,03,28,13,41,9.20
2017,03,28,13,42,9.20
2017,03,28,13,43,9.20
2017,03,28,13,44,9.20
2017,03,28,13,45,9.20
2017,03,28,13,46,9.20
2017,03,28,13,47,9.20
2017,03,28,13,48,9.10
2017,03,28,13,49,9.10
2017,03,28,13,50,9.10
2017,03,28,13,51,9.10
2017,03,28,13,52,9.10
2017,03,28,13,53,9.20
2017,03,28,13,54,9.20
2017,03,28,13,55,9.20
2017,03,28,13,56,9.20
2017,03,28,13,57,9.10
2017,03,28,13,58,9.10
2017,03,28,13,59,9.00
2017,03,28,14,00,9.00
2017,03,28,14,01,8.90
2017,03,28,14,02,8.90
2017,03,28,14,03,8.90
2017,03,28,14,04,8.90
2017,03,28,14,05,8.80
2017,03,28,14,06,8.90
2017,03,28,14,07,8.90
2017,03,28,14,08,8.90
2017,03,28,14,09,8.90
2017,03,28,14,10,8.90
2017,03,28,14,11,8.90
2017,03,28,14,12,8.90
2017,03,28,14,13,8.90
2017,03,28,14,14,8.90
2017,03,28,14,15,8.90
2017,03,28,14,16,8.90
2017,03,28,14,17,9.00
2017,03,28,14,18,9.00
2017,03,28,14,19,9.10
2017,03,28,14,20,9.10
2017,03,28,14,21,9.20
2017,03,28,14,22,9.20
2017,03,28,14,23,9.20
2017,03,28,14,24,9.20
2017,03,28,14,25,9.20
2017,03,28,14,26,9.20
2017,03,28,14,27,9.20
2017,03,28,14,28,9.20
2017,03,28,14,29,9.20
2017,03,28,14,30,9.20
2017,03,28,14,31,9.20
2017,03,28,14,32,9.20
2017,03,28,14,33,9.20
2017,03,28,14,34,9.20
2017,03,28,14,35,9.20
2017,03,28,14,36,9.20
2017,03,28,14,37,9.20
2017,03,28,14,38,9.20
2017,03,28,14,39,9.20
2017,03,28,14,40,9.20
2017,03,28,14,41,9.20
2017,03,28,14,42,9.20
2017,03,28,14,43,9.10
2017,03,28,14,44,9.10
2017,03,28,14,45,9.10
2017,03,28,14,46,9.10
2017,03,28,14,47,9.10
2017,03,28,14,48,9.10
2017,03,28,14,49,9.10
2017,03,28,14,50,9.10
2017,03,28,14,51,9.10
2017,03,28,14,52,9.10
2017,03,28,14,53,9.10
2017,03,28,14,54,9.10
2017,03,28,14,55,9.10
2017,03,28,14,56,9.20
2017,03,28,14,57,9.20
2017,03,28,14,58,9.20
2017,03,28,14,59,9.20
2017,03,28,15,00,9.20
2017,03,28,15,01,9.30
2017,03,28,15,02,9.30
2017,03,28,15,03,9.30
2017,03,28,15,04,9.30
2017,03,28,15,05,9.30
2017,03,28,15,06,9.30
2017,03,28,15,07,9.30
2017,03,28,15,08,9.40
2017,03,28,15,09,9.40
2017,03,28,15,10,9.40
2017,03,28,15,11,9.40
2017,03,28,15,12,9.40
2017,03,28,15,13,9.40
2017,03,28,15,14,9.40
2017,03,28,15,15,9.40
2017,03,28,15,16,9.40
2017,03,28,15,17,9.40
2017,03,28,15,18,9.40
2017,03,28,15,19,9.40
2017,03,28,15,20,9.40
2017,03,28,15,21,9.40
2017,03,28,15,22,9.30
2017,03,28,15,23,9.30
2017,03,28,15,24,9.30
2017,03,28,15,25,9.30
2017,03,28,15,26,9.30
2017,03,28,15,27,9.30
2017,03,28,15,28,9.30
2017,03,28,15,29,9.30
2017,03,28,15,30,9.20
2017,03,28,15,31,9.20
2017,03,28,15,32,9.10
2017,03,28,15,33,9.10
2017,03,28,15,34,9.10
2017,03,28,15,35,9.20
2017,03,28,15,36,9.20
2017,03,28,15,37,9.20
2017,03,28,15,38,9.20
2017,03,28,15,39,9.20
2017,03,28,15,40,9.20
2017,03,28,15,41,9.20
2017,03,28,15,42,9.20
2017,03,28,15,43,9.20
2017,03,28,15,44,9.20
2017,03,28,15,45,9.20
2017,03,28,15,46,9.20
2017,03,28,15,47,9.20
2017,03,28,15,48,9.20
2017,03,28,15,49,9.20
2017,03,28,15,50,9.20
2017,03,28,15,51,9.20
2017,03,28,15,52,9.20
2017,03,28,16,43,9.10
2017,03,28,16,44,9.10
2017,03,28,16,45,9.10
2017,03,28,16,46,9.10
2017,03,28,16,47,9.10
2017,03,28,16,48,9.10
2017,03,28,16,49,9.10
2017,03,28,16,50,9.10
2017,03,28,16,51,9.10
2017,03,28,16,52,9.10
2017,03,28,16,53,9.10
2017,03,28,16,54,9.10
2017,03,28,16,55,9.10
2017,03,28,16,56,9.10
